Aérodrome :
LOGIN :

S'inscrire | Disclaimer

   EN    FR    IT 

 










Légende :    VFR   VFR Marginal   IFR   IFR Intensif   IFR Très Intensif
Visi : 
Plafond : 
>= 8 km
>= 3000ft
5 à 8 km
1000 à 3000 ft
1500m à 5 km
500 à 1000 ft
800 à 1500m
200 à 500 ft
< 800m
< 200 ft
Symboles :   Orages  Brouillard  Fortes neiges  Fortes précipitations  Vent > 20 kt
SIGMETs :   Divers  Orages  Givrage  Turbulence  Onde Orograph.  Cendres Volcan.







- Altitude de l'aérodrome : 464 ft
- Code IATA : EVX
- Voir les cartes d'approche


LFOE - Evreux

DERNIER METAR :
  • 241730Z AUTO 36003KT 330V050 9999 BKN038 22/15 Q1024

METARs EXPIRÉS :
  • 241700Z AUTO VRB03KT 9999 BKN037 21/14 Q1024
  • 241630Z AUTO 35004KT 310V020 9999 SCT036 22/15 Q1025
  • 241600Z AUTO 02003KT 350V050 9999 OVC034 21/14 Q1025
  • 241530Z AUTO 01004KT 340V050 9999 OVC034 21/14 Q1025
  • 241500Z AUTO 03004KT 350V070 9999 OVC034 21/14 Q1025

TAF TAF LFOE
Valide du 24 à 15h jusqu'au 25 à 15h UTC


241400Z 2415/2515 35005KT 9999 BKN033
BECMG 2509/2511 08010KT
Pas de NOTAMs connus pour ce terrain.



MET'MAP, la Météo Aéronautique d'un coup d'oeil ! - Copyright ORBIFLY Décembre 2007 - Disclaimer

ORBIFLY MET'MAP TEAM :

Programmation & Développement : Alexandra Zaïnal
Conception & Développement : Baudouin d'Aumeries
Co-Programmation & Développement : Marc-Olivier Méhu
Soutien technique & logistique : Manuel Goepfert

Contact : metmap@orbifly.com




SOURCES & CREDITS :

   NOAA